JBU1348 TJSJ-KDCA

Flight info

Callsign JBU1348
Flight time N/A
Altitude 34000
Route PALDE DCT DONQU DCT LNHOM/M078F340 L452 OXANA/N0455F340 AR8 ECG DCT WAVES CAPSS4
Aircraft A321/M-SDE3FGHIRWY/LB1

Departure

Time 2026-04-29 22:21
Airport Luis Munoz Marin International Airport (TJSJ)

Arrival

Time N/A
Airport Ronald Reagan Washington National Airport (KDCA)
Time Latitude Longitude Altitude Speed Heading
2026-04-29 22:04 18.43567 -66.00419 -27 ft 0 kts
2026-04-29 22:10 18.43548 -66.00419 -40 ft 4 kts
2026-04-29 22:10 18.43521 -66.00420 -44 ft 4 kts
2026-04-29 22:11 18.43495 -66.00418 -38 ft 4 kts 342°
2026-04-29 22:11 18.43474 -66.00406 -42 ft 4 kts 304°
2026-04-29 22:11 18.43467 -66.00388 -45 ft 2 kts 270°
2026-04-29 22:11 18.43467 -66.00384 -51 ft 1 kts 270°
2026-04-29 22:14 18.43467 -66.00412 -36 ft 4 kts 270°
2026-04-29 22:14 18.43467 -66.00445 -29 ft 6 kts 270°
2026-04-29 22:14 18.43467 -66.00506 -28 ft 10 kts 270°
2026-04-29 22:15 18.43467 -66.00583 -28 ft 11 kts 270°
2026-04-29 22:15 18.43467 -66.00662 -28 ft 11 kts 270°
2026-04-29 22:15 18.43468 -66.00744 -28 ft 12 kts 270°
2026-04-29 22:15 18.43468 -66.00830 -28 ft 12 kts 270°
2026-04-29 22:16 18.43467 -66.00921 -28 ft 13 kts 270°
2026-04-29 22:16 18.43467 -66.01017 -29 ft 14 kts 269°
2026-04-29 22:16 18.43467 -66.01122 -31 ft 15 kts 270°
2026-04-29 22:16 18.43467 -66.01236 -31 ft 14 kts 269°
2026-04-29 22:17 18.43466 -66.01333 -31 ft 13 kts 269°
2026-04-29 22:17 18.43469 -66.01416 -34 ft 9 kts 290°
2026-04-29 22:17 18.43513 -66.01436 -31 ft 7 kts
2026-04-29 22:17 18.43566 -66.01435 -49 ft 8 kts 360°
2026-04-29 22:18 18.43615 -66.01435 -38 ft 6 kts 359°
2026-04-29 22:18 18.43662 -66.01435 -35 ft 7 kts 359°
2026-04-29 22:18 18.43721 -66.01436 -49 ft 11 kts
2026-04-29 22:18 18.43766 -66.01449 -42 ft 5 kts 297°
2026-04-29 22:19 18.43753 -66.01487 -43 ft 6 kts 237°
2026-04-29 22:19 18.43760 -66.01527 -49 ft 7 kts 310°
2026-04-29 22:19 18.43795 -66.01565 -52 ft 8 kts 316°
2026-04-29 22:19 18.43829 -66.01576 -45 ft 5 kts 14°
2026-04-29 22:20 18.43851 -66.01548 -54 ft 9 kts 63°
2026-04-29 22:20 18.43953 -66.01301 -48 ft 71 kts 68°
2026-04-29 22:20 18.44226 -66.00621 -43 ft 129 kts 67°
2026-04-29 22:20 18.44642 -65.99595 1 ft 170 kts 66°
2026-04-29 22:21 18.45159 -65.98504 661 ft 164 kts 55°
2026-04-29 22:21 18.46050 -65.97741 1222 ft 171 kts 25°
2026-04-29 22:21 18.47264 -65.97628 1498 ft 186 kts 343°
2026-04-29 22:21 18.48346 -65.98415 1768 ft 197 kts 314°
2026-04-29 22:22 18.49305 -65.99480 2015 ft 210 kts 314°
2026-04-29 22:22 18.50342 -66.00634 2297 ft 222 kts 313°
2026-04-29 22:22 18.51426 -66.01843 2571 ft 234 kts 313°
2026-04-29 22:22 18.52588 -66.03137 2810 ft 252 kts 314°
2026-04-29 22:23 18.53837 -66.04529 3102 ft 270 kts 314°
2026-04-29 22:23 18.55143 -66.05979 3691 ft 274 kts 313°
2026-04-29 22:23 18.56459 -66.07439 4376 ft 275 kts 313°
2026-04-29 22:23 18.57781 -66.08904 5052 ft 277 kts 313°
2026-04-29 22:24 18.59117 -66.10384 5714 ft 279 kts 313°
2026-04-29 22:24 18.60458 -66.11871 6334 ft 282 kts 313°
2026-04-29 22:24 18.61816 -66.13373 6926 ft 284 kts 313°
2026-04-29 22:24 18.63185 -66.14886 7524 ft 286 kts 313°
2026-04-29 22:25 18.64557 -66.16404 8146 ft 287 kts 313°
2026-04-29 22:25 18.65940 -66.17936 8750 ft 289 kts 313°
2026-04-29 22:25 18.67313 -66.19459 9325 ft 291 kts 313°
2026-04-29 22:25 18.68733 -66.21034 9927 ft 293 kts 313°
2026-04-29 22:26 18.70143 -66.22602 10205 ft 307 kts 313°
2026-04-29 22:26 18.71657 -66.24289 10322 ft 325 kts 313°
2026-04-29 22:26 18.73257 -66.26072 10453 ft 343 kts 313°
2026-04-29 22:26 18.74938 -66.27944 10615 ft 357 kts 313°
2026-04-29 22:27 18.76663 -66.29858 11004 ft 363 kts 312°
2026-04-29 22:27 18.78410 -66.31794 11520 ft 365 kts 312°
2026-04-29 22:27 18.80170 -66.33748 11977 ft 369 kts 313°
2026-04-29 22:27 18.81949 -66.35722 12493 ft 372 kts 312°
2026-04-29 22:28 18.83737 -66.37707 13015 ft 374 kts 312°
2026-04-29 22:28 18.85533 -66.39703 13527 ft 376 kts 312°
2026-04-29 22:28 18.86724 -66.41029 13849 ft 377 kts 312°
2026-04-29 22:28 18.88539 -66.43052 14266 ft 380 kts 312°
2026-04-29 22:29 18.90363 -66.45087 14711 ft 382 kts 312°
2026-04-29 22:29 18.92789 -66.47794 15314 ft 385 kts 312°
2026-04-29 22:29 18.94672 -66.49817 15769 ft 387 kts 314°
2026-04-29 22:29 18.96612 -66.51804 16224 ft 389 kts 314°
2026-04-29 22:30 18.98590 -66.53777 16669 ft 392 kts 315°
2026-04-29 22:30 18.99936 -66.55108 16979 ft 393 kts 315°
2026-04-29 22:30 19.01910 -66.57065 17426 ft 395 kts 314°
2026-04-29 22:30 19.03912 -66.59068 17887 ft 397 kts 314°
2026-04-29 22:31 19.05918 -66.61093 18303 ft 400 kts 314°
2026-04-29 22:31 19.07934 -66.63136 18679 ft 402 kts 314°
2026-04-29 22:31 19.10005 -66.65137 19044 ft 405 kts 316°
2026-04-29 22:31 19.12150 -66.67097 19393 ft 408 kts 317°
2026-04-29 22:32 19.14331 -66.69029 19757 ft 411 kts 317°
2026-04-29 22:32 19.16538 -66.70969 20108 ft 413 kts 317°
2026-04-29 22:32 19.18749 -66.72921 20447 ft 415 kts 316°
2026-04-29 22:32 19.20963 -66.74898 20782 ft 417 kts 316°
2026-04-29 22:33 19.23177 -66.76895 21105 ft 419 kts 316°
2026-04-29 22:33 19.25396 -66.78910 21422 ft 421 kts 315°
2026-04-29 22:33 19.27621 -66.80933 21776 ft 423 kts 315°
2026-04-29 22:33 19.29852 -66.82963 22107 ft 424 kts 315°
2026-04-29 22:34 19.32073 -66.84983 22412 ft 426 kts 315°
2026-04-29 22:34 19.34327 -66.87030 22718 ft 428 kts 315°
2026-04-29 22:34 19.36599 -66.89094 23030 ft 430 kts 315°
2026-04-29 22:34 19.38875 -66.91161 23322 ft 432 kts 315°
2026-04-29 22:35 19.41161 -66.93238 23608 ft 434 kts 315°
2026-04-29 22:35 19.43463 -66.95327 23864 ft 436 kts 315°
2026-04-29 22:35 19.45772 -66.97423 24124 ft 438 kts 315°
2026-04-29 22:35 19.48087 -66.99525 24406 ft 439 kts 315°
2026-04-29 22:36 19.50408 -67.01632 24667 ft 440 kts 315°
2026-04-29 22:36 19.52738 -67.03747 24929 ft 442 kts 315°
2026-04-29 22:36 19.55081 -67.05877 25210 ft 443 kts 315°
2026-04-29 22:36 19.57417 -67.08003 25461 ft 444 kts 315°
2026-04-29 22:37 19.59768 -67.10145 25716 ft 446 kts 315°
2026-04-29 22:37 19.62121 -67.12291 25988 ft 447 kts 315°
2026-04-29 22:37 19.64482 -67.14447 26247 ft 448 kts 315°
2026-04-29 22:37 19.66845 -67.16607 26497 ft 449 kts 315°
2026-04-29 22:38 19.69222 -67.18777 26739 ft 450 kts 314°
2026-04-29 22:38 19.71604 -67.20953 26978 ft 452 kts 314°
2026-04-29 22:38 19.73991 -67.23129 27237 ft 453 kts 314°
2026-04-29 22:38 19.76384 -67.25307 27491 ft 454 kts 314°
2026-04-29 22:39 19.78784 -67.27495 27745 ft 455 kts 314°
2026-04-29 22:39 19.81157 -67.29665 27997 ft 457 kts 314°
2026-04-29 22:39 19.83566 -67.31871 28244 ft 458 kts 314°
2026-04-29 22:39 19.85977 -67.34081 28479 ft 459 kts 314°
2026-04-29 22:40 19.88403 -67.36302 28779 ft 458 kts 314°
2026-04-29 22:40 19.90811 -67.38505 29144 ft 457 kts 314°
2026-04-29 22:40 19.93219 -67.40709 29492 ft 455 kts 314°
2026-04-29 22:40 19.95611 -67.42903 29834 ft 454 kts 314°
2026-04-29 22:41 19.97995 -67.45090 30157 ft 453 kts 314°
2026-04-29 22:41 20.00377 -67.47272 30442 ft 451 kts 314°
2026-04-29 22:41 20.02756 -67.49452 30724 ft 450 kts 314°
2026-04-29 22:41 20.05122 -67.51621 31006 ft 449 kts 313°
2026-04-29 22:42 20.07481 -67.53784 31281 ft 447 kts 313°
2026-04-29 22:42 20.09826 -67.55943 31590 ft 445 kts 313°
2026-04-29 22:42 20.12168 -67.58101 31877 ft 444 kts 313°
2026-04-29 22:42 20.14496 -67.60242 32150 ft 443 kts 313°
2026-04-29 22:43 20.16828 -67.62384 32416 ft 442 kts 313°
2026-04-29 22:43 20.19153 -67.64522 32661 ft 440 kts 313°
2026-04-29 22:43 20.21467 -67.66654 32928 ft 439 kts 312°
2026-04-29 22:43 20.23741 -67.68750 33189 ft 438 kts 312°
2026-04-29 22:44 20.26045 -67.70877 33441 ft 437 kts 312°
2026-04-29 22:44 20.28345 -67.73003 33689 ft 437 kts 312°
2026-04-29 22:44 20.30638 -67.75120 33938 ft 436 kts 312°
2026-04-29 22:45 20.35199 -67.79315 33998 ft 430 kts 311°
2026-04-29 22:45 20.39716 -67.83472 34000 ft 429 kts 311°
2026-04-29 22:46 20.44214 -67.87636 34001 ft 428 kts 311°
2026-04-29 22:46 20.48715 -67.91810 34003 ft 429 kts 311°
2026-04-29 22:47 20.53216 -67.95981 34001 ft 429 kts 311°
2026-04-29 22:47 20.57727 -68.00148 34003 ft 429 kts 311°
2026-04-29 22:48 20.62232 -68.04324 34003 ft 428 kts 311°
2026-04-29 22:48 20.66717 -68.08494 34005 ft 428 kts 311°
2026-04-29 22:49 20.71252 -68.12593 34007 ft 430 kts 316°
2026-04-29 22:49 20.76356 -68.15954 34007 ft 434 kts 319°
2026-04-29 22:50 20.81517 -68.19309 34009 ft 434 kts 319°
2026-04-29 22:50 20.86645 -68.22648 34008 ft 435 kts 319°
2026-04-29 22:51 20.91835 -68.26019 34007 ft 435 kts 319°
2026-04-29 22:51 20.99595 -68.31066 34008 ft 435 kts 319°
2026-04-29 22:52 21.04766 -68.34436 34009 ft 434 kts 319°
2026-04-29 22:52 21.09927 -68.37803 34007 ft 434 kts 319°
2026-04-29 22:53 21.15079 -68.41166 34012 ft 434 kts 319°
2026-04-29 22:53 21.20201 -68.44510 34013 ft 434 kts 319°
2026-04-29 22:54 21.25355 -68.47886 34015 ft 434 kts 319°
2026-04-29 22:54 21.30506 -68.51258 34019 ft 434 kts 319°
2026-04-29 22:55 21.35662 -68.54630 34041 ft 434 kts 319°
2026-04-29 22:55 21.40814 -68.58010 34013 ft 434 kts 318°
2026-04-29 22:56 21.45930 -68.61366 34013 ft 434 kts 319°
2026-04-29 22:56 21.51078 -68.64748 34013 ft 434 kts 318°
2026-04-29 22:57 21.56220 -68.68129 34016 ft 434 kts 318°
2026-04-29 22:57 21.61370 -68.71514 34016 ft 434 kts 319°
2026-04-29 22:58 21.66520 -68.74892 34013 ft 434 kts 318°
2026-04-29 22:58 21.71667 -68.78287 34016 ft 434 kts 319°
2026-04-29 22:59 21.76811 -68.81680 34012 ft 434 kts 319°
2026-04-29 22:59 21.81965 -68.85071 34013 ft 434 kts 319°
2026-04-29 23:00 21.87077 -68.88450 34015 ft 434 kts 318°
2026-04-29 23:00 21.92220 -68.91857 34022 ft 434 kts 319°
2026-04-29 23:01 21.97367 -68.95258 34017 ft 434 kts 319°
2026-04-29 23:01 22.02516 -68.98665 34038 ft 434 kts 319°
2026-04-29 23:02 22.08077 -69.02355 34023 ft 432 kts 319°
2026-04-29 23:02 22.18326 -69.09160 34023 ft 433 kts 319°
2026-04-29 23:03 22.28590 -69.15966 34026 ft 432 kts 319°
2026-04-29 23:03 22.38821 -69.22808 34024 ft 434 kts 320°
2026-04-29 23:04 22.49111 -69.29645 34027 ft 434 kts 320°
2026-04-29 23:04 22.59310 -69.36474 34030 ft 434 kts 320°
2026-04-29 23:05 22.69588 -69.43350 34046 ft 434 kts 320°
2026-04-29 23:05 22.79881 -69.50244 34029 ft 435 kts 321°
2026-04-29 23:06 22.90193 -69.57187 34032 ft 437 kts 321°
2026-04-29 23:06 23.00553 -69.64147 34029 ft 437 kts 321°
2026-04-29 23:07 23.10894 -69.71128 34032 ft 438 kts 321°
2026-04-29 23:07 23.21264 -69.78128 34038 ft 438 kts 321°
2026-04-29 23:08 23.31606 -69.85133 34041 ft 438 kts 321°
2026-04-29 23:08 23.41904 -69.92107 34040 ft 439 kts 321°
2026-04-29 23:09 23.52292 -69.99160 34041 ft 439 kts 321°
2026-04-29 23:09 23.62648 -70.06214 34041 ft 439 kts 321°
2026-04-29 23:10 23.73021 -70.13289 34041 ft 441 kts 321°
2026-04-29 23:10 23.83450 -70.20413 34048 ft 442 kts 321°
2026-04-29 23:11 23.93900 -70.27568 34044 ft 443 kts 321°
2026-04-29 23:11 24.04356 -70.34731 34040 ft 444 kts 322°
2026-04-29 23:12 24.14838 -70.41928 34040 ft 445 kts 321°
2026-04-29 23:12 24.25232 -70.49106 34041 ft 445 kts 321°
2026-04-29 23:13 24.35723 -70.56331 34056 ft 445 kts 322°
2026-04-29 23:13 24.46208 -70.63589 34047 ft 445 kts 322°
2026-04-29 23:14 24.56710 -70.70850 34047 ft 446 kts 322°
2026-04-29 23:14 24.67201 -70.78133 34048 ft 445 kts 322°
2026-04-29 23:15 24.77686 -70.85428 34046 ft 445 kts 323°
2026-04-29 23:15 24.88086 -70.92683 34051 ft 446 kts 323°
2026-04-29 23:16 24.98682 -70.99994 34044 ft 449 kts 328°
2026-04-29 23:16 25.04551 -71.02215 34052 ft 458 kts 342°
2026-04-29 23:16 25.10766 -71.03849 34049 ft 458 kts 342°
2026-04-29 23:17 25.23182 -71.07164 34054 ft 459 kts 342°
2026-04-29 23:17 25.35577 -71.10487 34056 ft 459 kts 343°
2026-04-29 23:18 25.47983 -71.13799 34052 ft 458 kts 343°
2026-04-29 23:18 25.60375 -71.17123 34052 ft 458 kts 343°
2026-04-29 23:19 25.72773 -71.20456 34057 ft 457 kts 343°
2026-04-29 23:19 25.85064 -71.23792 34060 ft 457 kts 343°
2026-04-29 23:20 25.97437 -71.27111 34066 ft 458 kts 344°
2026-04-29 23:20 26.09841 -71.30465 34071 ft 458 kts 344°
2026-04-29 23:21 26.22221 -71.33827 34063 ft 458 kts 344°
2026-04-29 23:21 26.32539 -71.36619 34039 ft 459 kts 345°
2026-04-29 23:22 26.44989 -71.40026 34043 ft 460 kts 345°
2026-04-29 23:22 26.57404 -71.43423 34050 ft 460 kts 345°
2026-04-29 23:23 26.69850 -71.46824 34074 ft 460 kts 345°
2026-04-29 23:23 26.82210 -71.50184 34078 ft 460 kts 345°
2026-04-29 23:24 26.94668 -71.53615 34093 ft 461 kts 345°
2026-04-29 23:24 27.07120 -71.57050 34084 ft 460 kts 346°
2026-04-29 23:25 27.19542 -71.60472 34074 ft 457 kts 346°
2026-04-29 23:25 27.31890 -71.63899 34058 ft 457 kts 346°
2026-04-29 23:26 27.44246 -71.67316 34072 ft 456 kts 346°
2026-04-29 23:26 27.56555 -71.70746 34077 ft 455 kts 346°
2026-04-29 23:27 27.68846 -71.74160 34073 ft 455 kts 346°
2026-04-29 23:27 27.81033 -71.77563 34073 ft 452 kts 346°
2026-04-29 23:28 27.93249 -71.80978 34075 ft 452 kts 346°
2026-04-29 23:28 28.05446 -71.84410 34074 ft 452 kts 345°
2026-04-29 23:29 28.17665 -71.87838 34056 ft 452 kts 345°
2026-04-29 23:29 28.29873 -71.91262 34052 ft 452 kts 345°
2026-04-29 23:30 28.42096 -71.94721 34058 ft 453 kts 345°
2026-04-29 23:30 28.54328 -71.98190 34079 ft 453 kts 345°
2026-04-29 23:31 28.66566 -72.01676 34092 ft 454 kts 344°
2026-04-29 23:31 28.78764 -72.05140 34087 ft 454 kts 344°
2026-04-29 23:32 28.91036 -72.08648 34090 ft 454 kts 344°
2026-04-29 23:32 29.03278 -72.12144 34064 ft 453 kts 344°
2026-04-29 23:33 29.15502 -72.15650 34053 ft 453 kts 344°
2026-04-29 23:33 29.27693 -72.19151 34065 ft 451 kts 343°
2026-04-29 23:34 29.39863 -72.22650 34068 ft 451 kts 343°
2026-04-29 23:34 29.52029 -72.26165 34062 ft 450 kts 343°
2026-04-29 23:35 29.64190 -72.29673 34064 ft 450 kts 343°
2026-04-29 23:35 29.76345 -72.33218 34078 ft 450 kts 342°
2026-04-29 23:36 29.88465 -72.36736 34065 ft 449 kts 343°
2026-04-29 23:36 30.00504 -72.40238 34060 ft 449 kts 342°
2026-04-29 23:37 30.12592 -72.43788 34066 ft 448 kts 342°
2026-04-29 23:37 30.24678 -72.47350 34056 ft 448 kts 342°
2026-04-29 23:38 30.36740 -72.50975 34048 ft 448 kts 342°
2026-04-29 23:38 30.48813 -72.54587 34055 ft 448 kts 342°
2026-04-29 23:39 30.60891 -72.58199 34075 ft 448 kts 341°
2026-04-29 23:39 30.72973 -72.61861 34044 ft 448 kts 341°